Julián Ferreyra

Chief Scout - Madryn
4 Dec 2027
Saturday
Process

Personality

Adaptability (19) Ambition (18) Controversy (12) Loyalty (1) Pressure (19) Professionalism (17) Sportsmanship (2) Temperament (9)

Profile

Coaching Style Democratic
License Continental B
Determination 7
Man Management 2
Motivating 3
Discipline 5
Job Satisfaction
100%
Fatigue
0%
Role Chief Scout
Wage 15.6K p/w
Contract 14.03.2028

Performance

Behaviour Good
Training Effectiveness
20%
Player Development
30%
Injury Prevention
5%
Tactical Implementation
30%

Recent Events

Attended a recruitment meeting 7d ago
Birthday 7d ago
Assessed a player 7d ago
Assessed a player 7d ago
Assessed a player 7d ago
Assessed a player 14d ago
Assessed a player 14d ago
Assessed a player 14d ago

Currently Monitoring

131
Player Club Status Ability Confidence Watched Last Observed Latest Vote
Felipe Ordoñez Deportivo Pasto Active 90 / 104 40% 1 29.11.2027 -
Ignacio Vallejos Colegiales Active 105 / 104 40% 1 29.11.2027 -
Marco Miori Alvarado Active 115 / 102 40% 2 28.11.2027 -
Franco Vedoya Central Norte Active 113 / 105 40% 1 28.11.2027 -
José Rondón Estudiantes de Caracas Active 105 / 99 40% 1 24.11.2027 -
Franco Alfonso Olimpia Active 111 / 117 40% 1 24.11.2027 -
Tomás O'Connor Gimnasia y Esgrima Active 129 / 121 40% 1 23.11.2027 -
Matteo Trombini Arsenal Active 109 / 105 40% 1 23.11.2027 -
Santiago Valenzuela Chaco For Ever Active 110 / 123 40% 3 21.11.2027 -
Thiago Calone All Boys Active 124 / 119 40% 1 21.11.2027 -
Franco Bigo 12 de Octubre Active 98 / 99 40% 1 19.11.2027 -
Francisco Funes Los Andes Active 90 / 109 40% 1 19.11.2027 -
Lucas Ríos Atlanta Active 117 / 114 40% 2 18.11.2027 -
Julián Palacios Unión de Santa Fe Active 112 / 120 40% 1 18.11.2027 -
Juan Esteban Ávalo Aguilas Doradas Active 120 / 110 40% 1 17.11.2027 -
Santiago Patroni Defensores Unidos Active 113 / 109 40% 1 17.11.2027 -
Mateo Zuleta Once Caldas Active 120 / 129 40% 2 13.11.2027 -
Lorenzo Monti Temperley Active 101 / 106 40% 1 13.11.2027 -
Thomas Ortega Quilmes Active 111 / 100 40% 1 11.11.2027 -
Patricio Moyano Defensores Active 108 / 127 40% 1 10.11.2027 -
Juan David Rueda Alianza Petrolera Active 112 / 114 40% 1 10.11.2027 -
Juan Yangali San Telmo Active 111 / 128 40% 4 09.11.2027 -
Valentín Serrano Arsenal Active 119 / 102 40% 2 09.11.2027 -
Brian Nievas Chaco For Ever Active 116 / 97 40% 2 08.11.2027 -
Milton Gerez Güemes Active 113 / 109 40% 2 08.11.2027 -
Santiago Sala Güemes Active 102 / 108 40% 2 07.11.2027 -
Gastón Moreyra Almirante Brown Active 124 / 118 40% 1 06.11.2027 -
Leonardo Olavarría Uruguay Montevideo Active 110 / 111 40% 1 06.11.2027 -
Ulises Vera Quilmes Active 111 / 115 40% 2 04.11.2027 -
Diogo Guzmán Montevideo City Torque Active 123 / 116 40% 1 04.11.2027 -
Enzo Hoyos Ferro Carril Oeste Active 127 / 111 40% 1 03.11.2027 -
Segundo Pachamé Plaza Colonia Active 99 / 104 40% 1 01.11.2027 -
David Veliz Güemes Active 119 / 110 40% 1 28.10.2027 -
Fabricio Rojas Gimnasia y Tiro Active 109 / 122 40% 1 25.10.2027 -
Yefferson Colmenárez Zulia Active 95 / 100 40% 1 22.10.2027 -
Federico Versaci Talleres Active 103 / 118 40% 1 21.10.2027 -
Franco Fagúndez Estudiantes Active 112 / 112 40% 1 21.10.2027 -
Carlos Gugenheim Almirante Brown Active 107 / 114 40% 1 20.10.2027 -
Federico Pérez Agropecuario Argentino Active 115 / 109 40% 1 20.10.2027 -
Facundo Ardiles Estudiantes Active 125 / 120 40% 1 19.10.2027 -
Erik de los Santos Racing Active 116 / 119 40% 1 19.10.2027 -
Ignacio Rodríguez Central Espanol Active 108 / 94 40% 1 29.11.2026 -
Nicolás Kozlovsky Oriental Active 112 / 106 40% 1 29.11.2026 -
Matías Machado Racing Active 116 / 98 40% 1 26.11.2026 -
Rafael Haller Liverpool Montevideo Active 100 / 108 40% 1 25.11.2026 -
Matías Núñez Carabobo Active 100 / 98 40% 4 23.11.2026 -
Emiliano Ancheta Nacional Active 123 / 116 40% 1 22.11.2026 -
Nahuel Sena Cerro Active 111 / 105 40% 1 21.11.2026 -
Miguel Pernía Carabobo Active 111 / 102 40% 1 21.11.2026 -
Martín Ginzo Deportivo Maldonado Active 93 / 106 40% 3 16.11.2026 -
Bautista Carrera Avellino Active 100 / 99 40% 1 16.11.2026 -
Juan Díaz Universidad Catolica Active 112 / 108 40% 3 15.11.2026 -
Gianfranco Trasante Progreso Active 115 / 107 40% 1 15.11.2026 -
Aron Agüero Maipú Active 121 / 110 40% 1 14.11.2026 -
Yerco Oyanedel Universidad de Concepcion Active 115 / 100 40% 1 13.11.2026 -
Franco Quinteros Estudiantes Active 111 / 102 40% 1 13.11.2026 -
Mathías Silvera Chaco For Ever Active 105 / 99 40% 1 09.11.2026 -
Carlos Faya Deportivo La Guaira Active 100 / 111 40% 1 09.11.2026 -
Agustín Benítez Defensores Active 103 / 120 40% 1 04.11.2026 -
Axel Prado Cerro Largo Active 89 / 97 40% 1 04.11.2026 -
Ismael Cortez Gimnasia y Esgrima Active 111 / 115 40% 1 03.11.2026 -
Andrés Ayala Hellas Verona Active 108 / 103 40% 1 03.11.2026 -
Nicolás Fernandez Universidad de Chile Active 112 / 113 40% 1 02.11.2026 -
Matías Núñez Atenas Active 105 / 102 40% 3 30.10.2026 -
Juan Millán Danubio Active 98 / 96 40% 3 28.10.2026 -
Benjamín Ilama Uruguay Montevideo Active 103 / 95 40% 1 28.10.2026 -
Ezequiel Neira Carabobo Active 106 / 115 40% 3 27.10.2026 -
Juan Luis Alfaro Banfield Active 126 / 105 40% 1 27.10.2026 -
Walter Juárez Güemes Active 120 / 113 40% 1 26.10.2026 -
Cristian Gorgerino Alvarado Active 112 / 101 40% 1 24.10.2026 -
Nicolás Morro Defensores Active 93 / 108 40% 1 21.10.2026 -
Julián Vila Arsenal Active 104 / 94 40% 1 21.10.2026 -
Germán Peralta La Luz Active 90 / 109 40% 1 19.10.2026 -
Lautaro Centurión Fenix Active 86 / 88 40% 2 17.10.2026 -
Leandro Lacunza Hibernians Active 104 / 104 40% 1 17.10.2026 -
Maximiliano Luayza Koot Tristán Suárez Active 97 / 106 40% 1 16.10.2026 -
Maico Quiroz Güemes Active 115 / 113 40% 1 15.10.2026 -
Alejandro Molina Tristán Suárez Active 101 / 106 40% 1 15.10.2026 -
Lucas Núñez Deportivo Maldonado Active 98 / 104 40% 1 14.10.2026 -
Lucas Arzamendia Atenas Active 103 / 109 40% 1 11.10.2026 -
Alejo Antilef Penarol Active 106 / 109 40% 1 09.10.2026 -
Damián Cabrera River Plate Active 95 / 83 40% 1 09.10.2026 -
Mauricio Guzmán Tristán Suárez Active 100 / 122 40% 1 06.10.2026 -
Maximiliano Ribero Central Norte Active 125 / 124 40% 1 05.10.2026 -
Gonzalo Gamarra Floriana Active 110 / 107 40% 1 04.10.2026 -
Diego Gallegos Morelia Active 119 / 85 40% 1 04.10.2026 -
Román Suárez Alianza Atletico Active 83 / 89 40% 1 01.10.2026 -
Nahuel Gallardo San Martín Active 115 / 108 40% 1 01.10.2026 -
Augusto Gallo Fenix Active 100 / 85 40% 2 30.09.2026 -
José Caldera Deportivo Cali Active 120 / 126 40% 1 30.09.2026 -
Mateo Puerta Deportivo Cali Active 117 / 110 40% 2 29.09.2026 -
Jimmy Martínez Universidad Catolica Active 111 / 98 40% 1 29.09.2026 -
Santiago Laquidain Liverpool Montevideo Active 104 / 94 40% 2 25.09.2026 -
Andrés Olivera Colon Active 111 / 116 40% 1 25.09.2026 -
Daniel Rodriguez Valledupar Active 129 / 119 40% 2 23.09.2026 -
Milton Valenzuela Atlas Active 123 / 107 40% 3 21.09.2026 -
Leonel Pollacchi San Telmo Active 106 / 111 40% 1 21.09.2026 -
Ezequiel Busquets Montevideo City Torque Active 97 / 98 40% 2 20.09.2026 -
Julián Pou Montevideo City Torque Active 90 / 106 40% 1 20.09.2026 -
Adrián Vila Rampla Juniors Active 96 / 93 40% 1 19.09.2026 -
Gonzalo Silva Progreso Active 112 / 103 40% 1 16.09.2026 -
Santiago Viera Cerrito Active 96 / 113 40% 2 15.09.2026 -
Mauricio Isais Pachuca Active 96 / 96 40% 1 14.09.2026 -
Tomás López River Plate Active 89 / 101 40% 1 12.09.2026 -
Bianneider Tamayo Universidad de Chile Active 110 / 104 40% 3 10.09.2026 -
Daniel Zapata Envigado Active 100 / 106 40% 1 07.09.2026 -
Guido Sosa Atenas Active 91 / 110 40% 2 06.09.2026 -
Mariano Ramos Guarani Active 104 / 90 40% 1 06.09.2026 -
Rodrigo Schlegel Atlas Active 107 / 118 40% 1 05.09.2026 -
Brayan Murillo Envigado Active 86 / 115 40% 1 03.09.2026 -
Facundo Silvera Montevideo City Torque Active 95 / 113 40% 1 02.09.2026 -
Fabián Ángel Junior Active 101 / 102 40% 1 30.08.2026 -
Juan José Tello Deportivo Cali Active 105 / 111 40% 1 30.08.2026 -
Sebastián Santos Leon Active 109 / 100 40% 1 27.08.2026 -
Lucas Ymbert Uruguay Montevideo Active 92 / 91 40% 1 25.08.2026 -
Juan Felipe Castaño Once Caldas Active 105 / 99 40% 1 24.08.2026 -
Juan Manuel Ramos Deportivo Maldonado Active 106 / 92 40% 1 24.08.2026 -
Marcos Mina America de Cali Active 109 / 102 40% 1 23.08.2026 -
Pablo Monroy Pumas UNAM Active 132 / 136 40% 1 16.08.2026 -
Juan Bosca Racing Active 99 / 95 40% 1 15.08.2026 -
Marco Farfan Tigres Active 112 / 120 40% 1 15.08.2026 -
Facundo Pérez Juventud Active 94 / 110 40% 1 13.08.2026 -
Manuel Rios Universitario Popayan Active 97 / 114 40% 1 12.08.2026 -
Mauro Martín Progreso Active 102 / 98 40% 1 11.08.2026 -
Álvaro San Emeterio Tacuarembo Active 104 / 97 40% 1 11.08.2026 -
Mathías Pintos La Luz Active 95 / 108 40% 1 10.08.2026 -
Santiago Milano Liverpool Montevideo Active 81 / 108 40% 1 09.08.2026 -
Alonso Aceves Monterrey Active 100 / 121 40% 1 05.08.2026 -
Tomás Moschion Albion Active 107 / 104 40% 1 04.08.2026 -
Facundo Butti Cerro Active 90 / 85 40% 1 04.08.2026 -
Cristian Tovar America de Cali Active 108 / 118 40% 1 02.08.2026 -